Location: Mount Cross
(36.6390°N, 79.4878°W)
Time: 07:42:49
(UTC+00:00)

Tiros 1 - Pass Details

Date: 30 March 2023
Orbit: 627 x 661 km, 48.4° (Epoch: 02 June)

Event Time Altitude Azimuth Distance (km) Brightness Sun altitude
Exits shadow 10:30:52 - 289° (WNW) 2,368 9.5 -8.0°
Reaches altitude 10° 10:31:49 10° 295° (WNW) 2,073 9.3 -7.9°
Maximum altitude 10:35:37 23° 348° (NNW) 1,406 8.9 -7.1°
Drops below altitude 10° 10:39:26 10° 40° (NE) 2,077 10.6 -6.3°
Sets 10:42:13 0° 55° (NE) 2,989 11.9 -5.8°
